Location: Rowland
(34.5359°N, 79.2929°W)
Time: 14:46:35
(UTC+00:00)

Transit 4A - Pass Details

Date: 08 October 2022
Orbit: 871 x 972 km, 66.8° (Epoch: 29 November)

Event Time Altitude Azimuth Distance (km) Brightness Sun altitude
Rises 02:23:35 0° 224° (SW) 3,612 - -43.0°
Reaches altitude 10° 02:26:17 10° 230° (SW) 2,656 - -43.5°
Maximum altitude 02:32:08 44° 301° (WNW) 1,270 - -44.6°
Drops below altitude 10° 02:37:53 10° 13° (NNE) 2,601 - -45.6°
Sets 02:40:30 0° 20° (NNE) 3,530 - -46.1°
